Weather History for Molokai, HI

Change the Weather History Date:

Monday, May 13, 2013

  Actual Average Record
Temperature  
Mean Temperature 72 °F -  
Max Temperature 75 °F 81 °F 87 °F (1986)
Min Temperature 70 °F 67 °F 59 °F (1985)
Cooling Degree Days 8    
Growing Degree Days 22 (Base 50)    
Moisture  
Dew Point 67 °F    
Average Humidity 83    
Maximum Humidity 93    
Minimum Humidity 71    
Precipitation  
Precipitation 0.00 in - - ()
Sea Level Pressure  
Sea Level Pressure 30.07 in    
Wind  
Wind Speed 14 mph (NE)    
Max Wind Speed 23 mph    
Max Gust Speed 33 mph    
Visibility 10 miles    
Events Rain    
Averages and records for this station are not official NWS values.
T = Trace of Precipitation, MM = Missing Value Source: NWS Daily Summary

Daily Weather History Graph

Daily Weather History Graph

Search for Another Location

Airport:

Trip Planner

Search our weather history database for the weather conditions in past years. The results will help you decide how hot, cold, wet, or windy it might be!

Date:

Astronomy

May. 13, 2013 Rise Set
Actual Time 5:51 AM HST 6:58 PM HST
Civil Twilight 5:27 AM HST 7:22 PM HST
Nautical Twilight 4:59 AM HST 7:50 PM HST
Astronomical Twilight 4:30 AM HST 8:19 PM HST
Moon 8:49 AM HST (5/13) 10:15 PM HST (5/13)
Length of Visible Light 13h 55m
Length of Day
13h 07m
Waxing Crescent, 13% of the Moon is Illuminated
May 13
Waxing Crescent
May 17
First Quarter
May 24
Full
May 31
Last Quarter
Jun 8
New

Hourly Weather History & Observations

Time (HST) Temp. Dew Point Humidity Pressure Visibility Wind Dir Wind Speed Gust Speed Precip Events Conditions
12:54 AM 71.1 °F 64.0 °F 78% 30.08 in 10.0 mi North 5.8 mph 18.4 mph N/A   Mostly Cloudy
1:54 AM 70.0 °F 64.9 °F 84% 30.06 in 10.0 mi NNE 13.8 mph 25.3 mph N/A   Overcast
2:54 AM 70.0 °F 64.9 °F 84% 30.04 in 10.0 mi NNE 13.8 mph 23.0 mph N/A   Mostly Cloudy
3:54 AM 70.0 °F 66.9 °F 90% 30.03 in 10.0 mi NNE 11.5 mph - N/A   Clear
4:54 AM 70.0 °F 66.9 °F 90% 30.04 in 10.0 mi NNE 13.8 mph 21.9 mph N/A   Partly Cloudy
5:54 AM 70.0 °F 68.0 °F 93% 30.05 in 10.0 mi NNE 10.4 mph 21.9 mph 0.00 in   Scattered Clouds
6:54 AM 70.0 °F 66.9 °F 90% 30.07 in 10.0 mi NE 15.0 mph 26.5 mph N/A   Scattered Clouds
7:54 AM 72.0 °F 66.0 °F 81% 30.09 in 10.0 mi NE 18.4 mph 28.8 mph N/A   Scattered Clouds
8:54 AM 72.0 °F 66.0 °F 81% 30.10 in 10.0 mi ENE 20.7 mph 29.9 mph N/A   Scattered Clouds
10:54 AM 73.9 °F 66.0 °F 76% 30.09 in 10.0 mi NE 21.9 mph 29.9 mph N/A   Scattered Clouds
11:54 AM 75.9 °F 66.9 °F 74% 30.08 in 10.0 mi NE 23.0 mph 33.4 mph N/A   Partly Cloudy
12:54 PM 75.9 °F 66.0 °F 71% 30.07 in 10.0 mi NE 20.7 mph 31.1 mph N/A   Mostly Cloudy
1:54 PM 75.0 °F 66.9 °F 76% 30.06 in 10.0 mi NE 21.9 mph 33.4 mph N/A   Mostly Cloudy
2:54 PM 75.9 °F 68.0 °F 76% 30.05 in 10.0 mi NNE 16.1 mph 25.3 mph 0.00 in   Scattered Clouds
3:54 PM 73.9 °F 68.0 °F 82% 30.04 in 8.0 mi NE 19.6 mph 26.5 mph 0.00 in Rain Light Rain
4:54 PM 75.9 °F 66.9 °F 74% 30.03 in 10.0 mi NE 15.0 mph 23.0 mph 0.00 in   Scattered Clouds
5:54 PM 73.0 °F 68.0 °F 84% 30.04 in 10.0 mi NNE 10.4 mph 20.7 mph 0.00 in Rain Light Rain
6:54 PM 72.0 °F 66.9 °F 84% 30.06 in 10.0 mi NE 13.8 mph 20.7 mph 0.00 in   Mostly Cloudy
7:54 PM 72.0 °F 68.0 °F 87% 30.07 in 10.0 mi NNE 9.2 mph - N/A   Overcast
8:54 PM 72.0 °F 68.0 °F 87% 30.08 in 10.0 mi NNE 13.8 mph 20.7 mph N/A   Overcast
9:54 PM 71.1 °F 68.0 °F 90% 30.09 in 10.0 mi NNE 13.8 mph 23.0 mph N/A   Mostly Cloudy
10:54 PM 71.1 °F 68.0 °F 90% 30.10 in 10.0 mi NE 11.5 mph - N/A   Mostly Cloudy
11:54 PM 72.0 °F 68.0 °F 87% 30.09 in 10.0 mi NE 13.8 mph 20.7 mph N/A   Overcast